GW4132 Weather Reports


Display with metric or nautical units.
time (UTC)temp
F
wind
direction
speed
MPH
gust
MPH
rain 1hr
in
rain 24hr
in
rain mn
in
humidity
%
barometer
mb
20260506181540 54 116 1.0 5.0 0.00 0.00 0.00 86 1022.7
20260506180040 53 189 1.0 5.0 0.00 0.00 0.00 88 1023.0
20260506174537 51 167 1.0 4.0 0.00 0.00 0.00 90 1022.9
20260506173100 50 162 1.0 4.0 0.00 0.00 0.00 92 1023.1
20260506171543 49 156 0.0 3.0 0.00 0.00 0.00 92 1023.0
20260506170038 48 86 0.0 3.0 0.00 0.00 0.00 94 1022.8
20260506164539 48 174 1.0 4.0 0.00 0.00 0.00 95 1022.4
20260506163052 47 143 0.0 2.0 0.00 0.00 0.00 98 1022.9
20260506161541 46 209 0.0 1.0 0.00 0.00 0.00 98 1022.8
20260506160046 45 209 0.0 3.0 0.00 0.00 0.00 98 1022.9
20260506154546 45 170 0.0 2.0 0.00 0.00 0.00 98 1022.8
20260506153041 45 164 0.0 1.0 0.00 0.00 0.00 98 1022.8
20260506151540 45 94 0.0 1.0 0.00 0.00 0.00 97 1022.8
20260506150044 45 60 0.0 2.0 0.00 0.00 0.00 97 1022.6
20260506144539 45 49 0.0 1.0 0.00 0.00 0.00 97 1022.6
20260506143038 45 49 0.0 1.0 0.00 0.00 0.00 97 1022.7
20260506141539 45 49 0.0 2.0 0.00 0.00 0.00 97 1022.6
20260506140055 45 49 0.0 1.0 0.00 0.00 0.00 97 1022.5
20260506134542 44 49 0.0 1.0 0.00 0.00 0.00 97 1022.2
20260506133037 44 49 0.0 1.0 0.00 0.00 0.00 97 1022.1
20260506131543 44 49 0.0 0.0 0.00 0.00 0.00 97 1022.2
20260506130048 44 49 0.0 1.0 0.00 0.00 0.00 98 1022.1
20260506124548 44 49 0.0 0.0 0.00 0.00 0.00 97 1022.1
20260506123039 44 49 0.0 0.0 0.00 0.00 0.00 97 1022.0
20260506121545 43 49 0.0 1.0 0.00 0.00 0.00 98 1021.9
20260506120109 43 49 0.0 0.0 0.00 0.00 0.00 97 1021.9
20260506114601 43 49 0.0 0.0 0.00 0.00 0.00 98 1021.9
20260506113048 43 49 0.0 0.0 0.00 0.00 0.00 97 1021.8
20260506111552 42 49 0.0 0.0 0.00 0.00 0.00 98 1021.8
20260506110050 42 49 0.0 0.0 0.00 0.00 0.00 98 1021.7
20260506104548 41 49 0.0 0.0 0.00 0.00 0.00 97 1021.8
20260506103053 41 49 0.0 1.0 0.00 0.00 0.00 96 1021.6
20260506101552 41 49 0.0 1.0 0.00 0.00 0.00 95 1021.6
20260506100050 41 49 0.0 1.0 0.00 0.00 0.00 96 1021.6
20260506094548 41 49 0.0 1.0 0.00 0.00 0.00 96 1021.4
20260506093109 42 49 0.0 1.0 0.00 0.00 0.00 96 1021.4
20260506091553 42 49 0.0 1.0 0.00 0.00 0.00 96 1021.3
20260506090121 42 49 0.0 1.0 0.00 0.00 0.00 96 1021.4
20260506084554 42 49 0.0 1.0 0.00 0.00 0.00 95 1021.5
20260506083050 42 49 0.0 1.0 0.00 0.00 0.00 95 1021.4
20260506081552 43 49 0.0 1.0 0.00 0.00 0.00 96 1021.4
20260506073102 43 49 0.0 1.0 0.00 0.00 0.00 94 1021.4
20260506071551 43 49 0.0 1.0 0.00 0.00 0.00 95 1021.2
20260506061557 44 49 0.0 1.0 0.00 0.00 0.00 95 1020.7
20260506044605 46 49 0.0 1.0 0.00 0.00 0.00 89 1020.5
20260506043328 47 49 0.0 1.0 0.00 0.00 0.00 88 1020.3
20260506041609 47 49 0.0 1.0 0.00 0.00 0.00 87 1020.2
20260506040101 48 49 0.0 1.0 0.00 0.00 0.00 86 1020.1
20260506034613 49 49 0.0 1.0 0.00 0.00 0.00 84 1019.9
20260506033334 50 49 0.0 1.0 0.00 0.00 0.00 83 1019.8
20260506031823 51 49 0.0 1.0 0.00 0.00 0.00 80 1019.7
20260506030057 53 49 0.0 1.0 0.00 0.00 0.00 78 1019.7
20260506024608 55 49 0.0 1.0 0.00 0.00 0.00 76 1019.3
20260506023105 56 49 0.0 1.0 0.00 0.00 0.00 73 1019.2
20260506021556 57 346 0.0 2.0 0.00 0.00 0.00 72 1019.2
20260506020522 57 26 0.0 2.0 0.00 0.00 0.00 71 1019.1
20260506014821 58 5 0.0 3.0 0.00 0.00 0.00 71 1019.2
20260506013039 58 350 1.0 4.0 0.00 0.00 0.00 69 1018.9
20260506011540 59 18 0.0 2.0 0.00 0.00 0.00 69 1019.1
20260506010037 60 38 0.0 3.0 0.00 0.00 0.00 69 1019.1
20260506004604 61 32 1.0 3.0 0.00 0.00 0.00 67 1019.0
20260506003047 62 279 2.0 6.0 0.00 0.00 0.00 63 1019.2
20260506001602 64 44 2.0 5.0 0.00 0.00 0.00 59 1019.1
20260506000118 66 13 1.0 4.0 0.00 0.00 0.00 57 1019.3
20260505234549 66 42 1.0 4.0 0.00 0.00 0.00 56 1019.2
20260505233053 68 104 2.0 5.0 0.00 0.00 0.00 52 1019.2
20260505231551 69 88 1.0 4.0 0.00 0.00 0.00 52 1019.3
20260505230046 69 62 2.0 6.0 0.00 0.00 0.00 53 1019.3
20260505224545 69 62 2.0 6.0 0.00 0.00 0.00 50 1019.5
20260505223040 69 86 1.0 5.0 0.00 0.00 0.00 51 1019.6
20260505221547 69 140 1.0 6.0 0.00 0.00 0.00 54 1019.5
20260505220034 68 107 2.0 4.0 0.00 0.00 0.00 53 1019.6
20260505214551 69 27 2.0 6.0 0.00 0.00 0.00 54 1019.6
20260505213051 69 37 2.0 6.0 0.00 0.00 0.00 52 1019.8
20260505211532 70 93 2.0 6.0 0.00 0.00 0.00 53 1019.8
20260505210046 69 188 2.0 6.0 0.00 0.00 0.00 55 1019.8
20260505204558 69 31 2.0 5.0 0.00 0.00 0.00 53 1019.8
20260505203042 69 161 1.0 4.0 0.00 0.00 0.00 53 1019.9
20260505201541 69 104 1.0 4.0 0.00 0.00 0.00 50 1019.7
20260505200054 69 165 1.0 4.0 0.00 0.00 0.00 51 1019.6
20260505194556 68 139 2.0 4.0 0.00 0.00 0.00 52 1019.6
20260505193047 67 168 2.0 6.0 0.00 0.00 0.00 53 1019.6
20260505191548 66 205 2.0 4.0 0.00 0.00 0.00 55 1019.6
20260505190115 66 136 1.0 6.0 0.00 0.00 0.00 55 1019.6
20260505184557 65 161 2.0 4.0 0.00 0.00 0.00 60 1019.5
20260505183052 63 149 1.0 4.0 0.00 0.00 0.00 61 1019.5